Weather History for Benson, MN

Change the Weather History Date:

Sunday, June 16, 2013

  Actual Average Record
Temperature  
Mean Temperature 68 °F -  
Max Temperature 86 °F 77 °F 93 °F (2003)
Min Temperature 51 °F 54 °F 42 °F (1976)
Cooling Degree Days 4    
Growing Degree Days 18 (Base 50)    
Moisture  
Dew Point 50 °F    
Average Humidity 54    
Maximum Humidity 94    
Minimum Humidity 23    
Precipitation  
Precipitation 0.00 in - - ()
Sea Level Pressure  
Sea Level Pressure 29.91 in    
Wind  
Wind Speed 7 mph (WNW)    
Max Wind Speed 38 mph    
Max Gust Speed 48 mph    
Visibility 10 miles    
Events Rain , Thunderstorm    
Averages and records for this station are not official NWS values.
T = Trace of Precipitation, MM = Missing Value Source: NWS Daily Summary

Daily Weather History Graph

Daily Weather History Graph

Search for Another Location

Airport:

Trip Planner

Search our weather history database for the weather conditions in past years. The results will help you decide how hot, cold, wet, or windy it might be!

Date:

Astronomy

Jun. 16, 2013 Rise Set
Actual Time 5:33 AM CDT 9:12 PM CDT
Civil Twilight 4:56 AM CDT 9:50 PM CDT
Nautical Twilight 4:05 AM CDT 10:41 PM CDT
Astronomical Twilight 2:58 AM CDT 11:49 PM CDT
Moon 1:31 PM CDT (6/16) 12:59 AM CDT (6/16)
Length of Visible Light 16h 54m
Length of Day
15h 39m
Waxing Crescent, 50% of the Moon is Illuminated
Jun 16
Waxing Crescent
Jun 16
First Quarter
Jun 23
Full
Jun 29
Last Quarter
Jul 8
New

Hourly Weather History & Observations

Time (CDT) Temp. Heat Index Dew Point Humidity Pressure Visibility Wind Dir Wind Speed Gust Speed Precip Events Conditions
12:12 AM 60.8 °F - 48.2 °F 63% 29.91 in 10.0 mi West 5.8 mph - N/A   Clear
12:33 AM 60.8 °F - 48.2 °F 63% 29.91 in 10.0 mi Calm Calm - N/A   Clear
12:53 AM 57.2 °F - 48.2 °F 72% 29.91 in 10.0 mi WNW 3.5 mph - N/A   Clear
1:12 AM 57.2 °F - 48.2 °F 72% 29.91 in 10.0 mi Calm Calm - N/A   Clear
1:33 AM 57.2 °F - 50.0 °F 77% 29.92 in 10.0 mi Calm Calm - N/A   Clear
1:53 AM 55.4 °F - 48.2 °F 77% 29.92 in 10.0 mi Calm Calm - N/A   Clear
2:12 AM 53.6 °F - 50.0 °F 88% 29.92 in 10.0 mi Calm Calm - N/A   Clear
2:33 AM 53.6 °F - 48.2 °F 82% 29.91 in 10.0 mi Calm Calm - N/A   Clear
2:52 AM 55.4 °F - 51.8 °F 88% 29.91 in 10.0 mi Calm Calm - N/A   Clear
3:12 AM 53.6 °F - 51.8 °F 94% 29.91 in 10.0 mi Calm Calm - N/A   Clear
3:33 AM 53.6 °F - 50.0 °F 88% 29.92 in 10.0 mi Calm Calm - N/A   Clear
3:52 AM 53.6 °F - 50.0 °F 88% 29.92 in 10.0 mi Calm Calm - N/A   Clear
4:12 AM 53.6 °F - 48.2 °F 82% 29.92 in 10.0 mi Calm Calm - N/A   Clear
4:33 AM 51.8 °F - 48.2 °F 88% 29.92 in 10.0 mi Calm Calm - N/A   Clear
4:52 AM 51.8 °F - 50.0 °F 94% 29.93 in 10.0 mi Calm Calm - N/A   Clear
5:13 AM 53.6 °F - 50.0 °F 88% 29.93 in 10.0 mi Calm Calm - N/A   Clear
5:33 AM 51.8 °F - 48.2 °F 88% 29.94 in 10.0 mi SW 3.5 mph - N/A   Clear
5:52 AM 51.8 °F - 48.2 °F 88% 29.93 in 10.0 mi Calm Calm - N/A   Clear
6:13 AM 53.6 °F - 50.0 °F 88% 29.94 in 10.0 mi Calm Calm - N/A   Clear
6:33 AM 55.4 °F - 50.0 °F 82% 29.94 in 10.0 mi Calm Calm - N/A   Clear
6:52 AM 55.4 °F - 53.6 °F 94% 29.94 in 10.0 mi Calm Calm - N/A   Clear
7:13 AM 59.0 °F - 53.6 °F 82% 29.94 in 10.0 mi Calm Calm - N/A   Clear
7:33 AM 62.6 °F - 55.4 °F 77% 29.94 in 10.0 mi Calm Calm - N/A   Clear
7:52 AM 64.4 °F - 55.4 °F 73% 29.94 in 10.0 mi West 5.8 mph - N/A   Clear
8:13 AM 66.2 °F - 53.6 °F 64% 29.94 in 10.0 mi WNW 5.8 mph - N/A   Clear
8:33 AM 69.8 °F - 53.6 °F 56% 29.94 in 10.0 mi WNW 5.8 mph - N/A   Clear
8:52 AM 71.6 °F - 53.6 °F 53% 29.94 in 10.0 mi West 6.9 mph - N/A   Clear
9:13 AM 75.2 °F - 51.8 °F 44% 29.94 in 10.0 mi West 8.1 mph - N/A   Clear
9:33 AM 77.0 °F - 50.0 °F 39% 29.94 in 10.0 mi WNW 10.4 mph - N/A   Clear
9:52 AM 78.8 °F - 50.0 °F 36% 29.94 in 10.0 mi West 11.5 mph - N/A   Clear
10:13 AM 80.6 °F - 48.2 °F 32% 29.93 in 10.0 mi WNW 11.5 mph - N/A   Clear
10:33 AM 80.6 °F - 46.4 °F 30% 29.93 in 10.0 mi WNW 13.8 mph 18.4 mph N/A   Clear
10:52 AM 82.4 °F - 46.4 °F 28% 29.92 in 10.0 mi NW 11.5 mph 19.6 mph N/A   Clear
11:13 AM 82.4 °F - 44.6 °F 26% 29.92 in 10.0 mi WNW 11.5 mph 17.3 mph N/A   Clear
11:32 AM 82.4 °F - 44.6 °F 26% 29.92 in 10.0 mi NW 11.5 mph 19.6 mph N/A   Clear
11:52 AM 84.2 °F - 44.6 °F 25% 29.91 in 10.0 mi WNW 17.3 mph 24.2 mph N/A   Clear
12:13 PM 84.2 °F - 44.6 °F 25% 29.90 in 10.0 mi NW 15.0 mph 25.3 mph N/A   Clear
12:32 PM 84.2 °F - 44.6 °F 25% 29.90 in 10.0 mi NW 13.8 mph 28.8 mph N/A   Clear
12:52 PM 86.0 °F - 44.6 °F 23% 29.90 in 10.0 mi NW 21.9 mph - N/A   Scattered Clouds
1:13 PM 84.2 °F - 46.4 °F 27% 29.91 in 10.0 mi NW 18.4 mph 24.2 mph N/A   Scattered Clouds
1:32 PM 86.0 °F - 44.6 °F 23% 29.91 in 10.0 mi NW 17.3 mph 28.8 mph N/A   Clear
1:53 PM 84.2 °F - 46.4 °F 27% 29.91 in 10.0 mi NW 16.1 mph 32.2 mph N/A   Scattered Clouds
2:13 PM 84.2 °F - 46.4 °F 27% 29.91 in 10.0 mi NW 20.7 mph 28.8 mph N/A   Clear
2:32 PM 84.2 °F - 48.2 °F 29% 29.90 in 10.0 mi WNW 21.9 mph 28.8 mph N/A   Scattered Clouds
2:53 PM 86.0 °F - 48.2 °F 27% 29.90 in 10.0 mi NW 17.3 mph 33.4 mph N/A   Scattered Clouds
3:13 PM 80.6 °F 80.3 °F 53.6 °F 39% 29.90 in 10.0 mi WNW 21.9 mph 27.6 mph N/A Rain Light Rain
3:32 PM 82.4 °F - 51.8 °F 35% 29.88 in 10.0 mi WNW 19.6 mph 26.5 mph N/A   Scattered Clouds
3:53 PM 82.4 °F - 50.0 °F 32% 29.89 in 10.0 mi NW 27.6 mph 35.7 mph N/A   Clear
4:12 PM 80.6 °F - 46.4 °F 30% 29.89 in 10.0 mi WNW 15.0 mph - N/A   Clear
4:32 PM 78.8 °F - 50.0 °F 36% 29.90 in 10.0 mi WNW 38.0 mph 48.3 mph N/A Rain , Thunderstorm Light Thunderstorms and Rain
4:53 PM 75.2 °F - 51.8 °F 44% 29.91 in 10.0 mi WNW 16.1 mph 26.5 mph N/A Rain Light Rain
5:12 PM 78.8 °F - 50.0 °F 36% 29.90 in 10.0 mi WNW 15.0 mph - N/A   Scattered Clouds
5:32 PM 80.6 °F - 51.8 °F 37% 29.89 in 10.0 mi WNW 11.5 mph - N/A   Clear
5:53 PM 78.8 °F - 51.8 °F 39% 29.88 in 10.0 mi WNW 11.5 mph - N/A   Clear
6:12 PM 78.8 °F - 53.6 °F 42% 29.88 in 10.0 mi WNW 16.1 mph 20.7 mph N/A   Clear
6:32 PM 80.6 °F - 51.8 °F 37% 29.87 in 10.0 mi WNW 21.9 mph 27.6 mph N/A   Clear
6:53 PM 80.6 °F - 48.2 °F 32% 29.86 in 10.0 mi WNW 17.3 mph 27.6 mph N/A   Clear
7:12 PM 80.6 °F - 51.8 °F 37% 29.86 in 10.0 mi WNW 23.0 mph 27.6 mph N/A   Clear
7:32 PM 80.6 °F - 48.2 °F 32% 29.86 in 10.0 mi WNW 15.0 mph - N/A   Clear
7:53 PM 78.8 °F - 50.0 °F 36% 29.86 in 10.0 mi West 9.2 mph - N/A   Clear
8:12 PM 77.0 °F - 53.6 °F 44% 29.86 in 10.0 mi West 10.4 mph - N/A   Clear
8:32 PM 75.2 °F - 53.6 °F 47% 29.85 in 10.0 mi West 9.2 mph - N/A   Clear
8:53 PM 73.4 °F - 53.6 °F 50% 29.86 in 10.0 mi West 9.2 mph - N/A   Clear
9:12 PM 71.6 °F - 55.4 °F 57% 29.86 in 10.0 mi West 8.1 mph - N/A   Clear
9:33 PM 71.6 °F - 53.6 °F 53% 29.87 in 10.0 mi WNW 8.1 mph - N/A   Clear
9:53 PM 69.8 °F - 55.4 °F 60% 29.88 in 10.0 mi West 8.1 mph - N/A   Clear
10:12 PM 68.0 °F - 55.4 °F 64% 29.89 in 10.0 mi WNW 6.9 mph - N/A   Clear
10:33 PM 66.2 °F - 55.4 °F 68% 29.90 in 10.0 mi WNW 9.2 mph - N/A   Clear
10:53 PM 66.2 °F - 55.4 °F 68% 29.90 in 10.0 mi NW 8.1 mph - N/A   Clear
11:12 PM 66.2 °F - 55.4 °F 68% 29.90 in 10.0 mi NNW 9.2 mph - N/A   Clear
11:33 PM 66.2 °F - 53.6 °F 64% 29.90 in 10.0 mi NNW 8.1 mph - N/A   Clear
11:53 PM 64.4 °F - 53.6 °F 68% 29.91 in 10.0 mi NNW 5.8 mph - N/A   Clear